Weather History for Jefferson City, MO

Change the Weather History Date:

Thursday, January 17, 2013

  Actual Average Record
Temperature  
Mean Temperature 33 °F -  
Max Temperature 43 °F 39 °F 72 °F (1990)
Min Temperature 23 °F 18 °F -18 °F (1977)
Degree Days  
Heating Degree Days 32    
Moisture  
Dew Point 23 °F    
Average Humidity 69    
Maximum Humidity 86    
Minimum Humidity 38    
Precipitation  
Precipitation 0.00 in - - ()
Sea Level Pressure  
Sea Level Pressure 30.38 in    
Wind  
Wind Speed 4 mph (NNW)    
Max Wind Speed 13 mph    
Max Gust Speed 17 mph    
Visibility 10 miles    
Events      
Averages and records for this station are not official NWS values.
T = Trace of Precipitation, MM = Missing Value Source: NWS Daily Summary

Daily Weather History Graph

Daily Weather History Graph

Search for Another Location

Airport:

Trip Planner

Search our weather history database for the weather conditions in past years. The results will help you decide how hot, cold, wet, or windy it might be!

Date:

Astronomy

Jan. 17, 2013 Rise Set
Actual Time 7:24 AM CST 5:14 PM CST
Civil Twilight 6:55 AM CST 5:42 PM CST
Nautical Twilight 6:22 AM CST 6:15 PM CST
Astronomical Twilight 5:50 AM CST 6:47 PM CST
Moon 10:36 AM CST (1/17) No Moon Set
Length of Visible Light 10h 47m
Length of Day
9h 50m
Waxing Crescent, 38% of the Moon is Illuminated
Jan 17
Waxing Crescent
Jan 18
First Quarter
Jan 26
Full
Feb 3
Last Quarter
Feb 10
New

Hourly Weather History & Observations

Time (CST) Temp. Windchill Dew Point Humidity Pressure Visibility Wind Dir Wind Speed Gust Speed Precip Events Conditions
12:53 AM 28.0 °F - 21.9 °F 78% 30.14 in 10.0 mi Calm Calm - N/A   Clear
1:53 AM 26.1 °F - 19.9 °F 78% 30.17 in 10.0 mi Calm Calm - N/A   Clear
3:53 AM 26.1 °F - 21.0 °F 81% 30.21 in 9.0 mi Calm Calm - N/A   Clear
4:53 AM 25.0 °F - 21.0 °F 85% 30.24 in 9.0 mi Calm Calm - N/A   Clear
5:53 AM 23.0 °F - 19.0 °F 85% 30.27 in 9.0 mi Calm Calm - N/A   Clear
6:53 AM 26.1 °F 21.9 °F 21.0 °F 81% 30.29 in 9.0 mi NW 3.5 mph - N/A   Clear
7:14 AM 26.6 °F 22.6 °F 23.0 °F 86% 30.32 in 9.0 mi NW 3.5 mph - N/A   Mostly Cloudy
7:53 AM 30.0 °F 24.1 °F 26.1 °F 85% 30.33 in 9.0 mi WNW 5.8 mph - N/A   Overcast
8:53 AM 34.0 °F 28.0 °F 28.0 °F 79% 30.38 in 10.0 mi WNW 6.9 mph - N/A   Overcast
9:12 AM 35.6 °F 27.1 °F 26.6 °F 70% 30.40 in 10.0 mi North 12.7 mph - N/A   Scattered Clouds
9:53 AM 34.0 °F 25.0 °F 26.1 °F 73% 30.41 in 10.0 mi NW 12.7 mph - N/A   Scattered Clouds
10:00 AM 33.8 °F 25.3 °F 24.8 °F 70% 30.43 in 10.0 mi NNW 11.5 mph - N/A   Mostly Cloudy
10:16 AM 35.6 °F 29.2 °F 26.6 °F 70% 30.43 in 10.0 mi North 8.1 mph - N/A   Partly Cloudy
10:53 AM 37.0 °F 29.8 °F 25.0 °F 62% 30.43 in 10.0 mi North 10.4 mph - N/A   Partly Cloudy
11:53 AM 39.0 °F 34.8 °F 21.9 °F 50% 30.41 in 10.0 mi North 5.8 mph - N/A   Clear
12:53 PM 41.0 °F 36.4 °F 19.9 °F 43% 30.39 in 10.0 mi NNW 6.9 mph - N/A   Clear
1:53 PM 42.1 °F 35.7 °F 24.1 °F 49% 30.38 in 10.0 mi WNW 11.5 mph - N/A   Clear
2:53 PM 43.0 °F 37.7 °F 19.0 °F 38% 30.39 in 10.0 mi North 9.2 mph 17.3 mph N/A   Clear
3:53 PM 43.0 °F 38.2 °F 19.9 °F 40% 30.41 in 10.0 mi NNW 8.1 mph - N/A   Clear
4:53 PM 41.0 °F 38.0 °F 23.0 °F 49% 30.43 in 10.0 mi West 4.6 mph - N/A   Clear
5:53 PM 39.0 °F - 23.0 °F 53% 30.44 in 10.0 mi Calm Calm - N/A   Clear
6:53 PM 33.1 °F - 21.9 °F 64% 30.45 in 10.0 mi Calm Calm - N/A   Clear
7:53 PM 30.0 °F - 21.9 °F 72% 30.47 in 10.0 mi Calm Calm - N/A   Clear
8:53 PM 28.9 °F - 21.0 °F 72% 30.48 in 10.0 mi Calm Calm - N/A   Clear
9:53 PM 28.0 °F - 21.0 °F 75% 30.48 in 10.0 mi Calm Calm - N/A   Clear
10:53 PM 27.0 °F 23.0 °F 23.0 °F 85% 30.48 in 10.0 mi ESE 3.5 mph - N/A   Clear
11:53 PM 27.0 °F 20.5 °F 21.0 °F 78% 30.47 in 10.0 mi SE 5.8 mph - N/A   Clear